FW6283 Weather Reports


time (UTC)temp
C
wind
direction
speed
KPH
gust
KPH
rain 1hr
cm
rain 24hr
cm
rain mn
cm
humidity
%
barometer
mb
20260508043021 6 212 0.0 1.6 0.00 2.39 0.00 100 1001.7
20260508041519 6 196 0.0 0.0 0.00 2.39 0.00 100 1001.4
20260508040017 6 196 0.0 3.2 0.00 2.39 0.00 99 1001.8
20260508034517 6 197 1.6 6.4 0.00 2.39 0.00 100 1001.8
20260508033017 6 199 3.2 8.0 0.00 2.39 0.00 100 1001.9
20260508031512 6 182 4.8 9.7 0.00 2.39 0.00 100 1002.0
20260508030009 6 194 3.2 8.0 0.00 2.39 2.39 99 1002.0
20260508024508 6 181 3.2 8.0 0.00 2.39 2.39 99 1002.2
20260508023008 7 129 3.2 8.0 0.00 2.39 2.39 99 1001.9
20260508021505 7 185 1.6 4.8 0.00 2.39 2.39 99 1002.1
20260508020007 7 185 1.6 4.8 0.00 2.39 2.39 100 1001.8
20260508014508 7 185 1.6 8.0 0.00 2.39 2.39 99 1001.8
20260508013004 8 76 0.0 6.4 0.00 2.39 2.39 99 1001.6
20260508011504 8 182 1.6 4.8 0.00 2.39 2.39 100 1001.4
20260508010004 8 77 0.0 6.4 0.00 2.39 2.39 99 1001.5
20260508004504 9 321 0.0 4.8 0.00 2.39 2.39 99 1001.5
20260508003002 8 291 3.2 6.4 0.00 2.39 2.39 100 1001.7
20260508001502 8 69 0.0 4.8 0.00 2.39 2.39 99 1001.5
20260508000001 8 277 1.6 4.8 0.00 2.39 2.39 99 1001.6
20260507234501 8 54 1.6 4.8 0.00 2.39 2.39 99 1001.6
20260507233100 8 26 1.6 4.8 0.00 2.39 2.39 99 1001.6
20260507231601 8 27 0.0 4.8 0.00 2.39 2.39 99 1001.8
20260507230106 9 6 1.6 6.4 0.00 2.39 2.39 98 1001.7
20260507224610 9 321 1.6 4.8 0.00 2.39 2.39 99 1001.7
20260507223058 8 53 1.6 9.7 0.00 2.39 2.39 98 1001.5
20260507221557 9 33 1.6 4.8 0.00 2.39 2.39 98 1001.8
20260507220057 8 136 3.2 11.3 0.00 2.39 2.39 98 1001.9
20260507214606 10 155 0.0 8.0 0.05 2.39 2.39 98 1002.1
20260507213057 10 104 1.6 11.3 0.15 2.39 2.39 98 1001.8
20260507211601 10 217 9.7 17.7 0.36 2.39 2.39 99 1002.5
20260507210100 10 154 6.4 16.1 0.56 2.39 2.39 98 1002.0
20260507204552 11 140 4.8 12.9 0.71 2.34 2.34 98 1001.7
20260507203103 10 129 1.6 8.0 0.84 2.24 2.24 97 1002.5
20260507201557 11 146 1.6 6.4 0.79 2.01 2.01 96 1002.7
20260507200103 12 190 8.0 19.3 0.79 1.83 1.83 97 1003.0
20260507194546 12 190 6.4 17.7 0.79 1.63 1.63 97 1003.8
20260507193047 12 164 6.4 20.9 0.94 1.40 1.40 97 1003.9
20260507191542 12 189 6.4 19.3 0.94 1.22 1.22 97 1004.1
20260507190042 12 161 1.6 11.3 0.79 1.02 1.02 97 1004.1
20260507184547 13 204 9.7 25.7 0.61 0.81 0.81 96 1004.2
20260507183041 13 195 6.4 19.3 0.23 0.46 0.46 95 1004.5
20260507181538 13 187 9.7 27.4 0.05 0.25 0.25 93 1004.5
20260507180040 13 146 16.1 35.4 0.00 0.23 0.23 92 1004.3
20260507174539 13 153 16.1 45.1 0.00 0.23 0.23 91 1004.1
20260507173037 13 148 14.5 33.8 0.00 0.23 0.23 91 1004.0
20260507171535 13 187 20.9 41.8 0.00 0.23 0.23 90 1004.5
20260507170036 14 154 19.3 41.8 0.00 0.23 0.23 90 1004.5
20260507164541 13 140 19.3 32.2 0.00 0.23 0.23 89 1004.4
20260507163031 14 232 16.1 40.2 0.00 0.23 0.23 88 1005.3
20260507161528 15 172 16.1 61.2 0.00 0.23 0.23 87 1005.5
20260507160027 15 182 25.7 49.9 0.00 0.23 0.23 87 1005.6
20260507154524 15 159 16.1 46.7 0.00 0.23 0.23 88 1006.0
20260507153022 15 184 24.1 51.5 0.00 0.23 0.23 89 1006.1
20260507151522 14 188 22.5 51.5 0.00 0.23 0.23 89 1006.4
20260507150026 15 185 22.5 48.3 0.00 0.23 0.23 88 1006.5
20260507144525 14 179 19.3 54.7 0.00 0.23 0.23 90 1007.1
20260507143017 14 180 20.9 46.7 0.00 0.23 0.23 90 1007.4
20260507141517 14 211 20.9 56.3 0.00 0.23 0.23 89 1007.7
20260507140015 15 178 24.1 49.9 0.00 0.23 0.23 88 1007.9
20260507134515 15 158 22.5 51.5 0.00 0.23 0.23 86 1007.7
20260507133011 15 170 14.5 54.7 0.00 0.23 0.23 89 1007.7
20260507131507 15 218 14.5 53.1 0.03 0.23 0.23 91 1008.2
20260507130005 14 179 12.9 30.6 0.05 0.23 0.23 93 1008.2
20260507124505 13 177 19.3 46.7 0.13 0.23 0.23 95 1008.5
20260507123001 13 157 20.9 49.9 0.20 0.23 0.23 95 1008.5
20260507121621 13 208 25.7 54.7 0.20 0.20 0.20 96 1009.1
20260507120103 13 203 20.9 48.3 0.15 0.15 0.15 96 1009.5
20260507114635 13 151 17.7 35.4 0.13 0.13 0.13 95 1010.2
20260507113055 13 152 20.9 43.5 0.05 0.05 0.05 94 1010.2
20260507111559 13 191 22.5 59.5 0.00 0.00 0.00 91 1010.3
20260507110055 13 185 22.5 43.5 0.00 0.00 0.00 94 1009.9
20260507104550 12 149 17.7 40.2 0.00 0.00 0.00 95 1009.9
20260507103048 12 171 16.1 33.8 0.00 0.00 0.00 96 1010.6
20260507101546 11 169 12.9 27.4 0.00 0.00 0.00 97 1010.6
20260507100042 10 182 12.9 27.4 0.00 0.00 0.00 96 1011.1
20260507094540 11 150 6.4 16.1 0.00 0.00 0.00 97 1011.3
20260507093041 11 158 14.5 33.8 0.00 0.00 0.00 99 1011.9
20260507091543 7 146 0.0 9.7 0.00 0.00 0.00 96 1011.7
20260507090038 7 186 3.2 14.5 0.00 0.00 0.00 96 1011.8
20260507084532 6 337 1.6 6.4 0.00 0.00 0.00 93 1011.9
20260507083032 8 108 1.6 16.1 0.00 0.00 0.00 94 1011.7
20260507081524 10 177 4.8 16.1 0.00 0.00 0.00 94 1011.9
20260507080023 11 152 8.0 20.9 0.00 0.00 0.00 93 1012.1
20260507074518 11 137 1.6 12.9 0.00 0.00 0.00 93 1012.3
20260507073016 11 360 3.2 8.0 0.00 0.00 0.00 92 1012.4
20260507071515 11 114 1.6 8.0 0.00 0.00 0.00 92 1012.8
20260507070014 10 172 0.0 9.7 0.00 0.00 0.00 90 1012.7
20260507064510 11 266 3.2 6.4 0.00 0.00 0.00 89 1013.0
20260507063007 11 216 4.8 9.7 0.00 0.00 0.00 86 1013.1
20260507061605 12 106 1.6 12.9 0.00 0.00 0.00 83 1013.2
20260507060104 13 140 1.6 11.3 0.00 0.00 0.00 80 1013.4
20260507054556 14 203 4.8 17.7 0.00 0.00 0.00 81 1013.4
20260507053055 14 204 11.3 29.0 0.00 0.00 0.00 82 1013.6
20260507051551 15 235 8.0 30.6 0.00 0.00 0.00 80 1013.9
20260507050050 15 178 11.3 30.6 0.00 0.00 0.00 79 1014.1
20260507044548 15 174 6.4 16.1 0.00 0.00 0.00 77 1014.3